QPF
0.00 0.00 0.00 0.00 0.00 0.00 0.00 0.00 0.00 0.00 0.00 0.00 0.00 0.00 0.00 0.00 0.00 0.00 0.00 0.00 0.00 0.00 0.00 0.00 0.00 0.00 0.00 0.00 0.00 0.00 0.00 0.00 0.00 0.00 0.00 0.00 0.00 0.00 0.00 0.00 0.00 0.00 0.00
0.00 0.00 0.00 0.00 0.00 0.00 0.00 0.00 0.00 0.00 0.00 0.00 0.00 0.00 0.00 0.00 0.00 0.00 0.00 0.00 0.00 0.00 0.00 0.00 0.00 0.00 0.00 0.00 0.00 0.00 0.00 0.00 0.00 0.00 0.00 0.00 0.00 0.00 0.00 0.00 0.00 0.00 0.00
0.00 0.00 0.00 0.00 0.00 0.00 0.00 0.00 0.00 0.00 0.00 0.00 0.00 0.00 0.00 0.00 0.00 0.00 0.00 0.00 0.00 0.00 0.00 0.00 0.00 0.00 0.00 0.00 0.00 0.00 0.00 0.00 0.00 0.00 0.00 0.00 0.00 0.00 0.00 0.00 0.00 0.00 0.00
0.00 0.00 0.00 0.00 0.00 0.00 0.00 0.00 0.00 0.00 0.00 0.00 0.00 0.00 0.00 0.00 0.00 0.00 0.00 0.00 0.00 0.00 0.00 0.00 0.00 0.00 0.00 0.00 0.00 0.00 0.00 0.00 0.00 0.00 0.00 0.00 0.00 0.00 0.00 0.00 0.00 0.00 0.00
0.00 0.00 0.00 0.00 0.00 0.00 0.00 0.00 0.00 0.00 0.00 0.00 0.00 0.00 0.00 0.00 0.00 0.00 0.00 0.00 0.00 0.00 0.00 0.00 0.00 0.00 0.00 0.00 0.00 0.00 0.00 0.00 0.00 0.00 0.00 0.00 0.00 0.00 0.00 0.00 0.00 0.00 0.00
0.00 0.00 0.00 0.00 0.00 0.00 0.00 0.00 0.00 0.00 0.00 0.00 0.00 0.00 0.00 0.00 0.00 0.00 0.00 0.00 0.00 0.00 0.00 0.00 0.00 0.00 0.00 0.00 0.00 0.00 0.00 0.00 0.00 0.00 0.00 0.00 0.00 0.00 0.00 0.01 0.01 0.01 0.00
0.00 0.00 0.00 0.00 0.00 0.00 0.00 0.00 0.00 0.00 0.00 0.00 0.00 0.00 0.00 0.00 0.00 0.00 0.00 0.00 0.00 0.00 0.00 0.00 0.00 0.00 0.00 0.00 0.00 0.00 0.00 0.00 0.00 0.00 0.01 0.01 0.01 0.01 0.01 0.01 0.01 0.01 0.01
0.00 0.00 0.00 0.00 0.00 0.00 0.00 0.00 0.00 0.00 0.00 0.00 0.00 0.00 0.00 0.00 0.00 0.00 0.00 0.00 0.00 0.00 0.00 0.00 0.00 0.00 0.00 0.00 0.00 0.00 0.00 0.00 0.00 0.00 0.00 0.00 0.01 0.01 0.02 0.02 0.01 0.01 0.00
0.00 0.00 0.00 0.00 0.00 0.00 0.00 0.00 0.00 0.00 0.00 0.00 0.00 0.00 0.00 0.00 0.00 0.00 0.00 0.00 0.00 0.00 0.00 0.00 0.00 0.00 0.00 0.00 0.00 0.00 0.00 0.00 0.00 0.00 0.00 0.00 0.01 0.00 0.01 0.01 0.01 0.01 0.01
0.00 0.00 0.00 0.00 0.00 0.00 0.00 0.00 0.00 0.00 0.00 0.00 0.00 0.00 0.00 0.00 0.00 0.00 0.00 0.00 0.00 0.00 0.00 0.00 0.00 0.00 0.00 0.00 0.00 0.00 0.00 0.00 0.00 0.00 0.00 0.00 0.00 0.00 0.00 0.01 0.02 0.02 0.02
0.00 0.00 0.00 0.00 0.00 0.00 0.00 0.00 0.00 0.00 0.00 0.00 0.00 0.00 0.00 0.00 0.00 0.00 0.00 0.00 0.00 0.00 0.00 0.00 0.00 0.00 0.00 0.00 0.00 0.00 0.00 0.01 0.01 0.00 0.00 0.00 0.00 0.00 0.00 0.00 0.01 0.02 0.03
0.00 0.00 0.00 0.00 0.00 0.00 0.00 0.00 0.00 0.00 0.00 0.00 0.00 0.00 0.00 0.00 0.00 0.00 0.00 0.00 0.00 0.00 0.00 0.00 0.00 0.00 0.00 0.00 0.00 0.00 0.00 0.00 0.00 0.00 0.00 0.00 0.00 0.00 0.00 0.00 0.01 0.01 0.02
0.00 0.00 0.00 0.00 0.00 0.00 0.00 0.00 0.00 0.00 0.00 0.00 0.00 0.01 0.01 0.01 0.00 0.00 0.00 0.00 0.00 0.00 0.00 0.00 0.00 0.00 0.00 0.00 0.00 0.00 0.00 0.00 0.00 0.00 0.00 0.00 0.00 0.00 0.00 0.00 0.00 0.01 0.01
0.00 0.00 0.00 0.00 0.00 0.00 0.00 0.00 0.01 0.01 0.01 0.01 0.01 0.01 0.01 0.01 0.01 0.00 0.00 0.00 0.00 0.00 0.00 0.00 0.00 0.00 0.00 0.00 0.00 0.00 0.00 0.00 0.00 0.01 0.00 0.00 0.00 0.00 0.00 0.01 0.01 0.01 0.01
0.00 0.00 0.00 0.00 0.01 0.01 0.01 0.01 0.01 0.01 0.01 0.01 0.01 0.01 0.01 0.01 0.00 0.00 0.00 0.00 0.00 0.00 0.00 0.00 0.00 0.00 0.00 0.00 0.00 0.00 0.00 0.00 0.00 0.00 0.00 0.00 0.00 0.00 0.00 0.01 0.01 0.01 0.01
0.00 0.00 0.00 0.00 0.00 0.01 0.01 0.01 0.01 0.01 0.01 0.01 0.01 0.00 0.00 0.00 0.00 0.00 0.00 0.00 0.00 0.00 0.00 0.00 0.00 0.00 0.00 0.00 0.00 0.00 0.00 0.00 0.00 0.00 0.00 0.00 0.00 0.00 0.00 0.01 0.01 0.01 0.01
0.00 0.00 0.00 0.00 0.00 0.01 0.01 0.01 0.01 0.01 0.01 0.01 0.00 0.00 0.00 0.00 0.00 0.00 0.00 0.00 0.00 0.00 0.00 0.00 0.00 0.00 0.00 0.00 0.00 0.00 0.00 0.00 0.00 0.00 0.00 0.00 0.00 0.00 0.00 0.00 0.00 0.01 0.01
0.00 0.00 0.00 0.00 0.00 0.00 0.01 0.01 0.01 0.01 0.01 0.01 0.00 0.00 0.00 0.00 0.00 0.00 0.00 0.00 0.00 0.00 0.00 0.00 0.00 0.00 0.00 0.00 0.00 0.00 0.00 0.00 0.00 0.00 0.00 0.00 0.00 0.00 0.00 0.00 0.00 0.00 0.00
0.00 0.00 0.00 0.00 0.00 0.00 0.00 0.00 0.00 0.00 0.00 0.00 0.00 0.00 0.00 0.00 0.00 0.00 0.00 0.00 0.00 0.00 0.00 0.00 0.00 0.00 0.00 0.00 0.00 0.00 0.00 0.00 0.00 0.00 0.00 0.00 0.00 0.00 0.00 0.00 0.00 0.00 0.00
0.00 0.00 0.00 0.00 0.00 0.00 0.00 0.00 0.00 0.00 0.00 0.00 0.00 0.00 0.00 0.00 0.00 0.00 0.00 0.00 0.00 0.00 0.00 0.00 0.00 0.00 0.00 0.00 0.00 0.00 0.00 0.00 0.00 0.00 0.00 0.00 0.00 0.00 0.00 0.00 0.00 0.00 0.00
0.00 0.00 0.00 0.00 0.00 0.00 0.00 0.00 0.00 0.00 0.00 0.00 0.00 0.00 0.00 0.00 0.00 0.00 0.00 0.00 0.00 0.00 0.00 0.00 0.00 0.00 0.00 0.00 0.00 0.00 0.00 0.00 0.00 0.00 0.00 0.00 0.00 0.00 0.00 0.00 0.00 0.00 0.00
0.00 0.00 0.00 0.00 0.00 0.00 0.00 0.00 0.00 0.00 0.00 0.00 0.00 0.00 0.00 0.00 0.00 0.00 0.00 0.00 0.00 0.00 0.00 0.00 0.00 0.00 0.00 0.00 0.00 0.00 0.00 0.00 0.00 0.00 0.00 0.00 0.00 0.00 0.00 0.00 0.00 0.00 0.00
0.00 0.00 0.00 0.00 0.00 0.00 0.00 0.00 0.00 0.00 0.00 0.00 0.00 0.00 0.00 0.00 0.00 0.00 0.00 0.00 0.00 0.00 0.00 0.00 0.00 0.00 0.00 0.00 0.00 0.00 0.00 0.00 0.00 0.00 0.00 0.00 0.00 0.00 0.00 0.00 0.00 0.00 0.00
0.00 0.00 0.00 0.00 0.00 0.00 0.00 0.00 0.00 0.00 0.00 0.00 0.00 0.00 0.00 0.00 0.00 0.00 0.00 0.00 0.00 0.00 0.00 0.00 0.00 0.00 0.00 0.00 0.00 0.00 0.00 0.00 0.00 0.00 0.00 0.00 0.00 0.00 0.00 0.00 0.00 0.00 0.00
0.01 0.01 0.01 0.01 0.01 0.01 0.01 0.00 0.00 0.00 0.00 0.00 0.00 0.00 0.00 0.00 0.00 0.00 0.00 0.00 0.00 0.00 0.00 0.00 0.00 0.00 0.00 0.00 0.00 0.00 0.00 0.00 0.00 0.00 0.00 0.00 0.00 0.00 0.00 0.00 0.00 0.00 0.00
0.01 0.01 0.01 0.01 0.01 0.01 0.01 0.01 0.01 0.01 0.01 0.01 0.01 0.01 0.01 0.01 0.01 0.00 0.00 0.00 0.00 0.00 0.00 0.00 0.00 0.00 0.00 0.00 0.00 0.00 0.00 0.00 0.00 0.00 0.00 0.00 0.00 0.00 0.00 0.00 0.00 0.00 0.00
MSLP
1015.12 1015.46 1015.96 1016.58 1017.31 1018.11 1018.97 1019.84 1020.71 1021.55 1022.37 1023.15 1023.88 1024.56 1025.20 1025.79 1026.35 1026.88 1027.40 1027.91 1028.42 1028.91 1029.37 1029.80 1030.18 1030.48 1030.71 1030.85 1030.92 1030.92 1030.88 1030.79 1030.68 1030.55 1030.39 1030.19 1029.94 1029.62 1029.22 1028.74 1028.17 1027.54 1026.86
1015.25 1015.57 1016.04 1016.65 1017.37 1018.18 1019.04 1019.94 1020.83 1021.72 1022.56 1023.37 1024.12 1024.81 1025.45 1026.04 1026.59 1027.11 1027.61 1028.10 1028.58 1029.04 1029.49 1029.91 1030.27 1030.58 1030.81 1030.97 1031.05 1031.07 1031.03 1030.95 1030.84 1030.69 1030.51 1030.28 1029.99 1029.64 1029.22 1028.73 1028.17 1027.56 1026.92
1015.51 1015.83 1016.29 1016.88 1017.58 1018.36 1019.21 1020.09 1020.97 1021.84 1022.69 1023.49 1024.23 1024.92 1025.55 1026.14 1026.68 1027.19 1027.67 1028.14 1028.60 1029.05 1029.48 1029.87 1030.23 1030.52 1030.76 1030.92 1031.02 1031.05 1031.02 1030.95 1030.84 1030.68 1030.48 1030.24 1029.94 1029.58 1029.16 1028.69 1028.16 1027.60 1027.01
1015.82 1016.17 1016.63 1017.20 1017.87 1018.61 1019.41 1020.24 1021.09 1021.92 1022.74 1023.51 1024.24 1024.92 1025.55 1026.13 1026.66 1027.17 1027.65 1028.11 1028.55 1028.98 1029.38 1029.75 1030.08 1030.36 1030.59 1030.75 1030.84 1030.88 1030.87 1030.80 1030.70 1030.54 1030.35 1030.11 1029.81 1029.47 1029.08 1028.65 1028.17 1027.68 1027.17
1016.10 1016.50 1016.98 1017.54 1018.18 1018.87 1019.61 1020.39 1021.18 1021.96 1022.74 1023.49 1024.20 1024.87 1025.50 1026.07 1026.61 1027.12 1027.59 1028.04 1028.47 1028.87 1029.24 1029.59 1029.89 1030.14 1030.34 1030.48 1030.57 1030.61 1030.60 1030.55 1030.45 1030.31 1030.13 1029.91 1029.65 1029.34 1029.00 1028.63 1028.23 1027.81 1027.37
1016.30 1016.76 1017.27 1017.83 1018.44 1019.09 1019.79 1020.51 1021.25 1022.00 1022.75 1023.47 1024.17 1024.84 1025.46 1026.05 1026.59 1027.09 1027.56 1027.99 1028.40 1028.77 1029.11 1029.41 1029.67 1029.88 1030.05 1030.17 1030.24 1030.27 1030.26 1030.21 1030.13 1030.01 1029.86 1029.68 1029.46 1029.22 1028.94 1028.64 1028.32 1027.97 1027.62
1016.36 1016.89 1017.44 1018.02 1018.62 1019.26 1019.92 1020.62 1021.34 1022.06 1022.79 1023.51 1024.21 1024.87 1025.50 1026.08 1026.62 1027.11 1027.56 1027.98 1028.35 1028.68 1028.97 1029.23 1029.44 1029.60 1029.73 1029.81 1029.86 1029.88 1029.86 1029.82 1029.76 1029.67 1029.56 1029.43 1029.27 1029.09 1028.89 1028.67 1028.42 1028.15 1027.86
1016.28 1016.88 1017.48 1018.09 1018.71 1019.35 1020.03 1020.72 1021.45 1022.18 1022.91 1023.64 1024.33 1024.99 1025.61 1026.18 1026.70 1027.17 1027.59 1027.96 1028.29 1028.58 1028.82 1029.02 1029.18 1029.30 1029.38 1029.43 1029.45 1029.45 1029.43 1029.40 1029.36 1029.30 1029.24 1029.16 1029.06 1028.95 1028.82 1028.68 1028.51 1028.31 1028.08
1016.07 1016.74 1017.39 1018.04 1018.70 1019.39 1020.10 1020.83 1021.59 1022.35 1023.10 1023.83 1024.53 1025.18 1025.77 1026.31 1026.79 1027.21 1027.59 1027.91 1028.19 1028.42 1028.61 1028.76 1028.87 1028.95 1028.99 1029.01 1029.01 1028.99 1028.97 1028.95 1028.93 1028.91 1028.88 1028.86 1028.82 1028.78 1028.72 1028.64 1028.54 1028.41 1028.24
1015.78 1016.50 1017.20 1017.90 1018.63 1019.37 1020.14 1020.94 1021.74 1022.54 1023.32 1024.06 1024.75 1025.37 1025.92 1026.41 1026.83 1027.19 1027.51 1027.77 1028.00 1028.18 1028.33 1028.44 1028.52 1028.56 1028.58 1028.57 1028.55 1028.52 1028.50 1028.48 1028.48 1028.49 1028.50 1028.52 1028.54 1028.56 1028.56 1028.54 1028.50 1028.43 1028.31
1015.45 1016.20 1016.95 1017.71 1018.49 1019.31 1020.16 1021.02 1021.89 1022.73 1023.54 1024.28 1024.94 1025.52 1026.01 1026.43 1026.78 1027.07 1027.32 1027.53 1027.70 1027.85 1027.97 1028.06 1028.12 1028.15 1028.15 1028.13 1028.10 1028.07 1028.04 1028.03 1028.04 1028.07 1028.11 1028.17 1028.23 1028.29 1028.34 1028.38 1028.39 1028.36 1028.30
1015.15 1015.91 1016.68 1017.48 1018.33 1019.22 1020.14 1021.07 1021.99 1022.87 1023.69 1024.42 1025.05 1025.57 1026.00 1026.34 1026.62 1026.84 1027.03 1027.19 1027.34 1027.47 1027.58 1027.66 1027.72 1027.75 1027.75 1027.73 1027.70 1027.66 1027.63 1027.62 1027.63 1027.67 1027.73 1027.81 1027.91 1028.00 1028.09 1028.17 1028.23 1028.25 1028.24
1014.91 1015.65 1016.43 1017.26 1018.16 1019.10 1020.08 1021.07 1022.03 1022.93 1023.75 1024.46 1025.04 1025.51 1025.87 1026.15 1026.36 1026.52 1026.67 1026.81 1026.95 1027.08 1027.20 1027.31 1027.38 1027.43 1027.44 1027.42 1027.39 1027.35 1027.31 1027.29 1027.30 1027.33 1027.40 1027.50 1027.61 1027.74 1027.86 1027.97 1028.06 1028.12 1028.16
1014.76 1015.46 1016.23 1017.07 1017.99 1018.97 1019.98 1021.00 1021.98 1022.89 1023.69 1024.37 1024.91 1025.33 1025.64 1025.87 1026.04 1026.18 1026.32 1026.46 1026.61 1026.77 1026.92 1027.05 1027.16 1027.23 1027.25 1027.24 1027.20 1027.15 1027.10 1027.07 1027.06 1027.09 1027.16 1027.27 1027.39 1027.53 1027.67 1027.81 1027.93 1028.03 1028.10
1014.70 1015.36 1016.09 1016.92 1017.84 1018.82 1019.84 1020.86 1021.84 1022.73 1023.51 1024.16 1024.67 1025.06 1025.34 1025.55 1025.71 1025.86 1026.02 1026.19 1026.38 1026.57 1026.77 1026.94 1027.08 1027.17 1027.21 1027.20 1027.15 1027.09 1027.02 1026.97 1026.95 1026.97 1027.04 1027.14 1027.27 1027.43 1027.59 1027.74 1027.88 1028.00 1028.09
1014.74 1015.34 1016.03 1016.83 1017.72 1018.68 1019.67 1020.66 1021.61 1022.47 1023.23 1023.85 1024.34 1024.72 1025.00 1025.23 1025.42 1025.61 1025.80 1026.03 1026.27 1026.52 1026.76 1026.97 1027.14 1027.24 1027.29 1027.27 1027.22 1027.14 1027.05 1026.99 1026.95 1026.96 1027.02 1027.13 1027.27 1027.43 1027.60 1027.76 1027.91 1028.05 1028.15
1014.85 1015.40 1016.05 1016.79 1017.63 1018.54 1019.48 1020.42 1021.31 1022.13 1022.85 1023.46 1023.95 1024.34 1024.65 1024.92 1025.16 1025.41 1025.67 1025.96 1026.26 1026.56 1026.84 1027.08 1027.27 1027.38 1027.43 1027.40 1027.34 1027.24 1027.15 1027.07 1027.03 1027.03 1027.09 1027.20 1027.34 1027.51 1027.69 1027.86 1028.02 1028.15 1028.25
1015.03 1015.53 1016.13 1016.81 1017.58 1018.41 1019.27 1020.14 1020.97 1021.73 1022.42 1023.00 1023.50 1023.92 1024.28 1024.60 1024.92 1025.24 1025.58 1025.93 1026.28 1026.63 1026.94 1027.19 1027.39 1027.50 1027.54 1027.51 1027.43 1027.34 1027.24 1027.16 1027.12 1027.13 1027.19 1027.30 1027.45 1027.63 1027.80 1027.98 1028.14 1028.27 1028.36
1015.26 1015.72 1016.26 1016.87 1017.55 1018.29 1019.06 1019.83 1020.58 1021.28 1021.92 1022.49 1023.00 1023.45 1023.86 1024.25 1024.64 1025.03 1025.44 1025.84 1026.24 1026.62 1026.94 1027.21 1027.40 1027.51 1027.54 1027.51 1027.44 1027.35 1027.26 1027.19 1027.16 1027.19 1027.26 1027.38 1027.53 1027.71 1027.89 1028.06 1028.21 1028.34 1028.43
1015.53 1015.95 1016.42 1016.95 1017.54 1018.17 1018.83 1019.50 1020.15 1020.78 1021.37 1021.93 1022.43 1022.91 1023.37 1023.83 1024.27 1024.73 1025.18 1025.63 1026.06 1026.44 1026.77 1027.03 1027.22 1027.33 1027.36 1027.34 1027.29 1027.21 1027.15 1027.11 1027.11 1027.15 1027.24 1027.37 1027.52 1027.70 1027.87 1028.04 1028.19 1028.31 1028.40
1015.80 1016.17 1016.58 1017.02 1017.51 1018.03 1018.57 1019.13 1019.69 1020.24 1020.78 1021.30 1021.80 1022.30 1022.79 1023.28 1023.78 1024.27 1024.76 1025.23 1025.67 1026.05 1026.38 1026.64 1026.82 1026.93 1026.98 1026.98 1026.95 1026.91 1026.89 1026.88 1026.91 1026.98 1027.09 1027.22 1027.38 1027.55 1027.72 1027.88 1028.02 1028.15 1028.24
1016.05 1016.36 1016.69 1017.05 1017.43 1017.84 1018.27 1018.71 1019.17 1019.65 1020.12 1020.61 1021.10 1021.59 1022.10 1022.62 1023.13 1023.65 1024.15 1024.63 1025.06 1025.44 1025.76 1026.02 1026.20 1026.32 1026.39 1026.43 1026.44 1026.45 1026.47 1026.50 1026.57 1026.67 1026.79 1026.93 1027.08 1027.25 1027.41 1027.56 1027.70 1027.83 1027.95
1016.21 1016.46 1016.71 1016.98 1017.26 1017.57 1017.89 1018.24 1018.61 1019.00 1019.42 1019.86 1020.32 1020.81 1021.31 1021.83 1022.35 1022.87 1023.37 1023.84 1024.27 1024.64 1024.95 1025.21 1025.40 1025.55 1025.65 1025.72 1025.78 1025.84 1025.90 1025.98 1026.08 1026.20 1026.34 1026.48 1026.63 1026.79 1026.94 1027.09 1027.24 1027.39 1027.54
1016.26 1016.43 1016.61 1016.79 1016.99 1017.20 1017.43 1017.69 1017.98 1018.30 1018.66 1019.06 1019.50 1019.96 1020.46 1020.97 1021.48 1021.99 1022.48 1022.94 1023.35 1023.72 1024.03 1024.29 1024.50 1024.67 1024.80 1024.92 1025.02 1025.12 1025.23 1025.35 1025.47 1025.61 1025.75 1025.90 1026.05 1026.20 1026.35 1026.51 1026.67 1026.85 1027.03
1016.16 1016.26 1016.36 1016.47 1016.59 1016.73 1016.89 1017.08 1017.31 1017.58 1017.89 1018.25 1018.66 1019.10 1019.57 1020.07 1020.57 1021.06 1021.54 1021.99 1022.39 1022.75 1023.07 1023.34 1023.56 1023.75 1023.92 1024.07 1024.20 1024.34 1024.48 1024.62 1024.76 1024.91 1025.05 1025.20 1025.35 1025.51 1025.67 1025.85 1026.04 1026.24 1026.47
1015.91 1015.95 1015.98 1016.03 1016.09 1016.17 1016.28 1016.43 1016.61 1016.84 1017.12 1017.45 1017.83 1018.25 1018.70 1019.18 1019.66 1020.14 1020.61 1021.04 1021.44 1021.80 1022.12 1022.40 1022.64 1022.85 1023.03 1023.20 1023.35 1023.50 1023.65 1023.80 1023.94 1024.09 1024.24 1024.40 1024.56 1024.73 1024.92 1025.12 1025.34 1025.59 1025.85
Thickness
5655 5654 5652 5648 5644 5639 5634 5627 5621 5614 5607 5601 5594 5587 5581 5575 5568 5562 5555 5547 5540 5532 5525 5518 5510 5503 5496 5489 5482 5474 5467 5462 5459 5459 5453 5447 5441 5437 5432 5426 5419 5413 5407
5643 5642 5641 5637 5633 5628 5622 5616 5610 5603 5596 5589 5583 5576 5569 5563 5556 5550 5543 5535 5527 5520 5512 5505 5497 5489 5482 5475 5467 5460 5453 5446 5442 5440 5438 5432 5426 5422 5418 5412 5405 5397 5388
5630 5629 5627 5624 5621 5615 5609 5604 5598 5592 5584 5577 5570 5564 5557 5550 5544 5537 5530 5522 5514 5507 5499 5491 5483 5476 5468 5460 5453 5446 5439 5432 5426 5421 5420 5415 5411 5406 5403 5398 5390 5382 5372
5616 5615 5613 5610 5607 5602 5596 5591 5585 5579 5573 5564 5557 5551 5544 5537 5531 5524 5517 5508 5500 5493 5485 5478 5470 5462 5455 5447 5440 5432 5426 5419 5412 5407 5403 5400 5394 5389 5383 5379 5377 5367 5357
5603 5601 5598 5595 5591 5587 5582 5577 5571 5565 5559 5551 5544 5537 5530 5524 5517 5510 5503 5495 5486 5478 5470 5463 5456 5449 5441 5434 5427 5420 5413 5405 5399 5393 5388 5383 5378 5371 5363 5356 5352 5348 5341
5590 5587 5583 5580 5576 5572 5567 5562 5556 5550 5543 5537 5531 5524 5517 5510 5504 5497 5489 5481 5473 5465 5457 5449 5442 5435 5428 5421 5413 5406 5399 5391 5384 5378 5371 5364 5358 5350 5343 5334 5326 5323 5320
5575 5571 5568 5566 5562 5558 5553 5548 5542 5536 5530 5523 5516 5509 5503 5497 5490 5483 5475 5467 5458 5451 5443 5435 5428 5421 5414 5407 5400 5392 5384 5375 5369 5361 5353 5344 5337 5330 5324 5318 5307 5296 5287
5562 5558 5556 5553 5549 5543 5539 5534 5528 5522 5515 5508 5501 5494 5488 5481 5475 5468 5460 5452 5444 5437 5429 5422 5415 5408 5401 5395 5388 5380 5370 5361 5354 5346 5338 5328 5319 5310 5302 5293 5284 5278 5272
5551 5547 5544 5540 5536 5530 5525 5519 5513 5506 5499 5492 5486 5479 5472 5466 5460 5453 5446 5437 5430 5422 5415 5408 5402 5395 5389 5383 5376 5368 5359 5349 5340 5331 5322 5312 5303 5293 5283 5274 5264 5256 5253
5541 5536 5531 5527 5523 5518 5512 5505 5498 5492 5484 5477 5469 5462 5456 5450 5445 5438 5431 5424 5415 5408 5401 5395 5389 5382 5375 5368 5361 5353 5345 5337 5328 5318 5308 5297 5287 5277 5266 5255 5244 5235 5228
5528 5522 5517 5512 5508 5503 5495 5489 5482 5475 5467 5459 5452 5445 5439 5434 5429 5423 5417 5409 5402 5394 5387 5381 5374 5368 5362 5355 5347 5339 5331 5323 5313 5303 5293 5283 5273 5262 5251 5240 5229 5218 5210
5514 5508 5502 5496 5492 5486 5479 5472 5465 5458 5450 5442 5435 5427 5422 5417 5413 5408 5402 5395 5388 5380 5373 5367 5360 5354 5347 5340 5331 5323 5314 5305 5295 5286 5277 5268 5259 5249 5239 5228 5218 5207 5198
5498 5492 5486 5480 5474 5469 5463 5456 5448 5441 5436 5427 5420 5414 5407 5401 5397 5392 5386 5380 5374 5367 5360 5353 5346 5339 5332 5323 5315 5306 5297 5287 5278 5268 5260 5252 5243 5234 5226 5217 5208 5198 5189
5482 5475 5469 5463 5457 5451 5446 5441 5435 5428 5422 5415 5408 5401 5394 5387 5382 5377 5371 5365 5359 5352 5344 5337 5330 5323 5315 5306 5297 5288 5279 5270 5261 5252 5244 5236 5227 5219 5210 5202 5195 5187 5179
5464 5458 5453 5448 5442 5435 5430 5425 5420 5416 5412 5406 5399 5392 5383 5375 5371 5366 5358 5351 5344 5337 5329 5320 5312 5304 5296 5288 5279 5270 5262 5253 5244 5236 5228 5219 5211 5203 5195 5187 5178 5170 5162
5448 5442 5438 5432 5426 5420 5413 5406 5403 5399 5395 5391 5385 5379 5372 5366 5359 5353 5346 5339 5331 5323 5313 5304 5296 5288 5280 5272 5263 5254 5245 5237 5229 5221 5212 5204 5196 5188 5180 5171 5163 5155 5148
5436 5429 5423 5418 5412 5406 5400 5395 5388 5381 5378 5374 5369 5364 5358 5351 5345 5338 5331 5323 5315 5307 5296 5288 5280 5272 5263 5255 5247 5238 5230 5222 5213 5205 5198 5189 5181 5173 5165 5157 5150 5142 5135
5418 5414 5409 5405 5399 5394 5388 5383 5377 5370 5362 5356 5352 5347 5342 5336 5329 5322 5314 5305 5296 5287 5279 5272 5264 5256 5248 5240 5232 5224 5216 5207 5199 5191 5183 5175 5166 5159 5151 5144 5136 5129 5123
5400 5396 5391 5387 5382 5377 5372 5366 5360 5354 5349 5341 5332 5327 5324 5318 5312 5305 5298 5288 5280 5271 5263 5256 5249 5241 5234 5226 5218 5209 5201 5193 5186 5178 5170 5162 5154 5146 5138 5132 5125 5118 5111
5381 5378 5373 5369 5364 5359 5354 5348 5343 5337 5331 5324 5318 5312 5304 5297 5292 5286 5280 5272 5264 5257 5250 5242 5235 5228 5220 5212 5204 5196 5188 5180 5173 5165 5158 5150 5142 5134 5128 5121 5114 5108 5101
5362 5358 5354 5350 5346 5342 5337 5332 5327 5320 5315 5309 5304 5297 5291 5284 5278 5271 5264 5257 5250 5243 5236 5229 5222 5214 5207 5199 5191 5183 5175 5168 5161 5154 5146 5139 5131 5124 5117 5111 5105 5098 5092
5342 5339 5335 5332 5327 5323 5318 5314 5308 5303 5299 5292 5286 5278 5276 5268 5261 5255 5249 5243 5236 5229 5223 5216 5208 5201 5194 5187 5180 5172 5164 5157 5150 5143 5136 5129 5121 5114 5108 5102 5095 5089 5083
5321 5318 5314 5311 5307 5303 5298 5294 5289 5285 5280 5275 5268 5261 5255 5252 5245 5239 5233 5227 5221 5215 5208 5202 5196 5189 5182 5175 5169 5162 5155 5149 5142 5134 5126 5119 5111 5105 5098 5092 5086 5080 5074
5300 5297 5294 5290 5286 5283 5279 5275 5270 5266 5261 5255 5250 5244 5239 5235 5229 5224 5218 5212 5206 5200 5194 5188 5183 5177 5170 5164 5158 5152 5146 5140 5132 5125 5118 5111 5104 5097 5090 5084 5078 5072 5067
5279 5276 5274 5270 5266 5263 5259 5255 5250 5246 5241 5237 5232 5227 5222 5217 5212 5207 5202 5196 5191 5186 5181 5176 5170 5165 5159 5153 5147 5141 5136 5129 5123 5117 5110 5103 5096 5089 5082 5076 5070 5064 5059
5256 5254 5252 5249 5246 5242 5238 5235 5231 5226 5222 5218 5213 5209 5204 5199 5195 5190 5186 5181 5177 5172 5168 5164 5159 5154 5148 5142 5136 5131 5125 5119 5114 5108 5102 5095 5088 5081 5075 5069 5063 5057 5052